Regional Weather Roundup
Issued by NWS Spokane, WA

Home | Current Version | Previous Version | Text Only | Print | Product List | Glossary On
Versions: 1 2 3 4 5 6 7 8 9 10 11 12 13 14 15 16 17 18 19 20 21 22 23 24 25 26 27 28 29 30 31 32 33 34 35 36 37 38 39 40 41 42 43 44 45 46 47 48 49 50
374
NZUS01 KOTX 141105
RWROTX
EASTERN WASHINGTON/NORTHERN IDAHO ROUNDUP
NATIONAL WEATHER SERVICE, SPOKANE WA
300 AM PST SUN FEB 14 2016

Note: "fair" indicated few or no clouds below 12,000 feet with no
significant weather and/or obstructions to visibility.

...NORTHEAST WASHINGTON AND NORTHERN IDAHO PANHANDLE...

CITY           SKY/WX    TMP DP  RH WIND       PRES   REMARKS
SPOKANE INTL   CLOUDY    39  36  89 SW13      30.05R
SPOKANE DOWNTO CLOUDY    42  37  82 SW7       30.07S
COEUR D ALENE  CLOUDY    39  36  87 SW15      30.03F
DEER PARK      CLOUDY    38  36  92 S6        30.05F
SANDPOINT      CLOUDY    36  36 100 SW7       30.04F FOG
BONNERS FERRY  CLOUDY    36  32  87 SW7       29.99F

...SOUTHEAST WASHINGTON AND SOUTHERN IDAHO PANHANDLE...

CITY           SKY/WX    TMP DP  RH WIND       PRES   REMARKS
WALLA WALLA    CLOUDY    48  40  73 S9        30.14F
PULLMAN/MOSCOW CLOUDY    42  37  82 SW10      30.10S
LEWISTON       CLOUDY    41  38  89 NE3       30.12R
LOWELL           N/A     39  38  96 CALM      30.17S

...COLUMBIA BASIN...

CITY           SKY/WX    TMP DP  RH WIND       PRES   REMARKS
EPHRATA        CLOUDY    34  33  96 SW3       30.04F
MOSES LAKE     CLOUDY    41  35  79 S7        30.06F
TRI CITIES     CLOUDY    47  39  74 SW13      30.12F
HERMISTON      CLOUDY    44  40  85 S10       30.15F
PENDLETON      CLOUDY    43  37  79 NW6       30.15F

...EAST SLOPES CASCADES...

CITY           SKY/WX    TMP DP  RH WIND       PRES   REMARKS
THE DALLES     CLOUDY    43  41  93 CALM      30.21S
YAKIMA         CLOUDY    37  32  82 NW3       30.10S
ELLENSBURG     CLOUDY    34  30  85 S3        30.06F
WENATCHEE      CLOUDY    36  32  85 SE5       30.04F
OMAK           CLOUDY    36  32  85 CALM      30.04S

...SOUTHERN BRITISH COLUMBIA...

CITY           SKY/WX    TMP DP  RH WIND       PRES   REMARKS

...WESTERN MONTANA...

CITY           SKY/WX    TMP DP  RH WIND       PRES   REMARKS
MISSOULA       CLOUDY    33  29  85 S5        30.03S WCI  29

...NEIGHBORING CITIES...

CITY           SKY/WX    TMP DP  RH WIND       PRES   REMARKS
SEATTLE        LGT RAIN  48  46  93 S13       30.13S FOG



USA.gov is the U.S. government's official web portal to all federal, state and local government web resources and services.